CAPE
0 0 0 0 0 0 0 0 0 0 0 0 0 0 0 0 0 0 0 6 372 693 858 1040 1413 1454 1273 1799 1678 1983 1898 2152 1812 1304 1088 1006 845 891 907 1086 1466 1809 1518 1625
0 0 0 0 0 0 0 0 0 0 0 0 0 0 0 0 0 0 0 0 0 120 753 946 1055 1507 1575 1711 1866 1828 2018 2115 1920 1608 1358 1136 1105 780 687 718 998 1330 1605 1563
0 0 0 0 0 0 0 0 0 0 0 0 0 0 0 0 0 0 0 0 0 0 34 399 719 913 1265 1866 2200 2198 2292 2177 2001 1810 1658 1416 1167 1009 969 916 1005 1187 1348 1465
0 0 0 0 0 0 0 0 0 0 0 0 0 0 0 0 0 0 0 0 0 0 1 59 171 460 678 886 1676 2216 2235 2422 2223 2116 1945 1902 1522 1296 1193 1202 1160 1063 1471 1522
0 0 0 0 0 0 0 0 0 0 0 0 0 0 0 0 0 0 0 0 12 31 49 45 46 169 326 591 1049 1716 2625 2660 2368 2281 2144 1965 1991 1758 1676 1489 2064 1988 1832 1495
0 0 0 0 0 0 0 0 0 0 0 0 0 0 0 0 0 0 0 0 0 23 68 288 267 82 218 260 455 1010 1852 2650 2767 2540 2312 2291 2244 2236 2001 2110 1941 1795 1653 1437
0 0 0 0 0 0 0 0 0 0 0 0 0 0 0 0 0 0 0 0 18 105 105 251 662 586 722 725 448 782 1601 1920 2642 2641 2510 2332 2398 2504 2610 2655 2182 2060 1755 1785
0 0 0 0 0 0 0 0 0 0 0 0 0 0 0 0 0 0 0 0 140 255 568 730 872 690 803 830 561 617 1249 1960 2066 2376 2627 2449 2390 2315 2417 2622 2213 1818 1901 2095
0 0 0 0 0 0 0 0 0 0 0 0 0 0 0 0 0 0 4 18 60 10 240 672 544 500 684 827 538 622 1302 2059 1860 2170 2521 2645 2552 2449 2333 2556 2591 1970 1635 1972
0 0 0 0 0 0 0 0 0 0 0 0 0 0 0 0 0 0 53 78 83 29 151 556 404 511 485 752 630 677 1308 1631 1925 2091 2234 2339 2510 2574 2414 2539 2259 2317 2308 1821
0 0 0 0 0 0 0 0 0 0 0 0 0 0 0 0 0 8 82 111 162 55 168 498 397 498 393 561 893 858 1119 1189 1544 1734 2292 2471 2127 2330 2205 2306 2012 1890 1949 1781
0 0 0 0 0 0 0 0 0 0 0 0 0 0 0 0 0 0 14 92 111 106 117 287 516 522 424 502 798 603 776 982 1239 1368 1617 1989 1856 2122 2047 2233 2259 1724 1828 1634
0 0 0 0 0 0 0 0 0 0 0 0 0 0 0 0 0 0 48 57 335 502 654 725 777 657 540 509 795 785 901 944 935 996 979 1469 1677 1679 1936 2185 1674 2053 2030 1885
0 0 0 0 0 0 0 0 0 0 0 0 0 0 0 0 4 121 167 363 590 708 676 837 1005 827 665 457 557 747 709 988 1004 683 725 802 1009 898 961 2203 2316 1611 1907 1914
0 0 0 0 0 0 0 0 0 0 0 0 0 0 0 11 135 87 182 387 439 471 541 690 830 1072 905 819 645 779 738 885 921 597 1014 706 1012 1224 1701 1821 2138 1877 1598 1727
0 0 0 0 0 0 0 0 0 0 0 0 0 0 22 91 79 196 186 151 236 359 457 635 828 985 910 697 724 502 777 890 885 779 617 620 1002 1456 1628 1432 1442 1708 1389 1401
0 0 0 0 0 0 0 0 0 0 0 6 13 29 25 106 168 239 141 87 147 314 579 626 684 880 782 516 541 716 635 730 909 615 425 489 805 801 1019 1187 1354 1087 1080 1198
0 0 0 0 0 0 0 0 8 25 36 70 98 91 99 167 237 128 176 237 338 481 375 320 444 605 670 487 486 254 255 388 299 366 551 375 125 94 149 356 501 342 314 692
0 0 0 0 0 0 0 3 39 43 48 31 77 70 39 86 12 107 110 265 454 365 356 384 530 501 217 163 274 116 118 141 116 76 166 274 234 73 6 42 17 68 65 45
0 0 0 0 1 0 7 54 81 58 28 48 182 127 137 135 40 50 243 219 290 464 421 370 411 119 56 17 9 53 10 27 25 3 3 10 41 84 42 40 34 48 36 51
0 43 54 51 30 20 16 65 127 57 27 73 160 275 319 154 205 372 314 426 528 483 356 464 272 105 36 4 0 13 40 31 8 26 38 19 1 0 4 32 21 27 116 169
8 70 105 78 97 18 42 162 127 119 216 139 200 342 438 519 565 523 569 704 696 708 445 333 71 30 0 7 100 88 127 48 5 3 1 0 12 11 0 36 91 83 146 151
60 78 58 98 30 40 93 279 243 272 250 348 362 541 688 689 557 585 621 605 675 568 555 50 0 1 59 144 208 203 41 31 0 0 0 0 0 2 19 11 166 94 129 139
32 18 40 13 8 1 21 152 177 220 398 473 674 791 625 697 715 456 576 752 837 674 552 104 43 59 52 74 83 70 3 0 0 0 0 0 0 0 11 2 0 65 94 42
0 5 4 14 1 53 108 164 258 569 809 740 593 656 734 780 499 639 423 396 521 571 605 363 190 73 64 40 52 38 19 4 0 0 0 0 0 0 0 0 0 0 0 0
0 0 1 0 0 16 84 216 463 704 524 580 745 818 786 631 616 618 406 388 334 482 488 223 170 85 56 78 168 96 40 14 0 0 0 0 0 0 0 0 0 0 0 0
CIN
-0 -0 -0 -0 -0 -0 -0 -0 -0 -0 -0 -0 -0 -0 -0 -0 -0 -0 -0 -108 -240 -305 -316 -316 -274 -235 -405 -369 -324 -240 -291 -182 -158 -204 -215 -193 -208 -149 -109 -73 -33 -7 -26 -16
-0 -0 -0 -0 -0 -0 -0 -0 -0 -0 -0 -0 -0 -0 -0 -0 -0 -0 -0 -0 -0 -279 -267 -283 -266 -186 -311 -318 -265 -313 -246 -229 -253 -238 -245 -200 -171 -223 -192 -138 -82 -46 -12 -12
-0 -0 -0 -0 -0 -0 -0 -0 -0 -0 -0 -0 -0 -0 -0 -0 -0 -0 -0 -0 -0 -0 -243 -242 -250 -260 -195 -208 -220 -262 -221 -236 -311 -294 -222 -197 -168 -165 -172 -156 -116 -89 -48 -17
-0 -0 -0 -0 -0 -0 -0 -0 -0 -0 -0 -0 -0 -0 -0 -0 -0 -0 -0 -0 -0 -0 -54 -156 -172 -327 -111 -353 -267 -200 -198 -180 -220 -220 -225 -181 -229 -235 -245 -213 -156 -139 -74 -55
-0 -0 -0 -0 -0 -0 -0 -0 -0 -0 -0 -0 -0 -0 -0 -0 -0 -0 -0 -0 -261 -314 -398 -453 -521 -494 -434 -283 -392 -252 -149 -139 -176 -190 -175 -193 -157 -189 -201 -177 -104 -83 -75 -82
-0 -0 -0 -0 -0 -0 -0 -0 -0 -0 -0 -0 -0 -0 -0 -0 -0 -0 -0 -0 -0 -331 -358 -317 -427 -573 -520 -532 -497 -422 -225 -108 -95 -134 -130 -138 -120 -121 -133 -125 -147 -153 -142 -136
-0 -0 -0 -0 -0 -0 -0 -0 -0 -0 -0 -0 -0 -0 -0 -0 -0 -0 -0 -0 -320 -328 -332 -329 -282 -331 -355 -381 -511 -467 -274 -209 -85 -79 -102 -101 -85 -48 -76 -84 -118 -132 -150 -128
-0 -0 -0 -0 -0 -0 -0 -0 -0 -0 -0 -0 -0 -0 -0 -0 -0 -0 -0 -0 -249 -250 -246 -257 -259 -311 -303 -347 -450 -480 -319 -179 -164 -117 -87 -46 -27 -60 -68 -58 -114 -158 -133 -124
-0 -0 -0 -0 -0 -0 -0 -0 -0 -0 -0 -0 -0 -0 -0 -0 -0 -0 -32 -231 -229 -318 -252 -226 -281 -328 -311 -310 -429 -444 -269 -139 -166 -104 -62 -37 -4 -37 -80 -21 -29 -103 -172 -129
-0 -0 -0 -0 -0 -0 -0 -0 -0 -0 -0 -0 -0 -0 -0 -0 -0 -0 -115 -152 -235 -276 -260 -206 -264 -299 -323 -284 -359 -358 -166 -123 -100 -63 -51 -43 -17 -7 -22 -21 -51 -45 -62 -117
-0 -0 -0 -0 -0 -0 -0 -0 -0 -0 -0 -0 -0 -0 -0 -0 -0 -58 -119 -145 -194 -268 -235 -185 -208 -213 -281 -253 -208 -218 -146 -119 -72 -68 -22 -17 -40 -22 -47 -68 -93 -88 -38 -47
-0 -0 -0 -0 -0 -0 -0 -0 -0 -0 -0 -0 -0 -0 -0 -0 -0 -0 -167 -145 -166 -197 -222 -204 -153 -164 -219 -208 -161 -227 -157 -104 -28 -58 -38 -12 -34 -20 -54 -79 -64 -86 -40 -30
-0 -0 -0 -0 -0 -0 -0 -0 -0 -0 -0 -0 -0 -0 -0 -0 -0 -0 -132 -136 -102 -127 -123 -114 -110 -109 -149 -153 -92 -99 -74 -79 -72 -68 -83 -44 -25 -26 -38 -45 -87 -53 -35 -22
-0 -0 -0 -0 -0 -0 -0 -0 -0 -0 -0 -0 -0 -0 -0 -0 -11 -75 -92 -70 -63 -76 -90 -67 -42 -41 -64 -128 -127 -83 -95 -38 -52 -133 -148 -176 -81 -70 -134 -5 -18 -53 -33 -14
-0 -0 -0 -0 -0 -0 -0 -0 -0 -0 -0 -0 -0 -0 -0 -6 -64 -107 -101 -62 -52 -67 -75 -46 -22 -0 -6 -21 -59 -49 -87 -58 -47 -106 -26 -117 -73 -80 -21 -9 -0 -1 -10 -10
-0 -0 -0 -0 -0 -0 -0 -0 -0 -0 -0 -0 -0 -0 -35 -92 -100 -65 -57 -51 -39 -38 -40 -10 -1 -0 -1 -16 -12 -64 -37 -40 -36 -40 -44 -52 -15 -0 -0 -15 -2 -0 -0 -0
-0 -0 -0 -0 -0 -0 -0 -0 -0 -0 -0 -10 -14 -14 -82 -39 -40 -52 -58 -72 -52 -33 -12 -4 -1 -0 -1 -13 -14 -0 -15 -22 -8 -23 -37 -21 -0 -0 -0 -0 -1 -10 -1 -0
-0 -0 -0 -0 -0 -0 -0 -0 -39 -29 -30 -39 -40 -39 -47 -33 -38 -79 -37 -31 -29 -18 -30 -39 -21 -1 -0 -3 -1 -21 -55 -36 -46 -16 -0 -17 -78 -33 -16 -10 -0 -39 -50 -14
-0 -0 -0 -0 -0 -0 -0 -7 -32 -24 -18 -66 -52 -47 -38 -47 -79 -45 -38 -30 -20 -32 -57 -40 -13 -1 -8 -4 -1 -15 -39 -58 -56 -41 -14 -25 -41 -51 -27 -34 -106 -96 -111 -122
-0 -0 -0 -0 -0 -0 -7 -62 -79 -64 -15 -41 -21 -19 -15 -31 -27 -43 -20 -31 -42 -22 -39 -33 -8 -10 -43 -50 -44 -16 -66 -68 -110 -38 -10 -197 -70 -65 -111 -48 -52 -60 -93 -117
-0 -29 -5 -3 -2 -1 -46 -51 -60 -6 -1 -25 -29 -18 -19 -13 -11 -20 -40 -27 -22 -26 -38 -1 -12 -9 -24 -37 -0 -66 -27 -49 -122 -117 -90 -140 -70 -0 -35 -102 -40 -20 -35 -15
-0 -0 -2 -16 -1 -0 -57 -46 -13 -5 -28 -44 -32 -23 -30 -31 -32 -23 -20 -8 -8 -8 -19 -10 -17 -8 -4 -9 -6 -23 -8 -36 -126 -157 -40 -0 -103 -214 -0 -91 -43 -52 -18 -12
-4 -11 -1 -9 -1 -28 -50 -18 -23 -64 -53 -44 -43 -27 -35 -29 -18 -12 -8 -7 -2 -10 -6 -52 -0 -97 -12 -1 -2 -4 -40 -39 -0 -0 -0 -0 -0 -45 -177 -208 -59 -63 -20 -9
-45 -110 -16 -29 -13 -11 -31 -44 -90 -95 -59 -57 -57 -44 -47 -22 -15 -23 -11 -3 -0 -0 -0 -27 -0 -18 -14 -19 -20 -16 -37 -0 -0 -0 -0 -0 -0 -0 -164 -87 -0 -53 -50 -117
-0 -18 -14 -19 -27 -35 -28 -50 -61 -49 -62 -60 -57 -64 -42 -20 -26 -7 -13 -24 -13 -0 -0 -0 -0 -3 -7 -20 -25 -34 -70 -80 -8 -0 -0 -0 -0 -0 -0 -0 -0 -0 -0 -0
-0 -0 -4 -0 -0 -38 -49 -62 -65 -54 -49 -58 -51 -37 -24 -21 -13 -1 -5 -9 -18 -4 -0 -2 -0 -2 -20 -7 -11 -28 -70 -96 -0 -0 -0 -0 -0 -0 -0 -0 -0 -0 -0 -0
Wind_Speed
nan nan nan nan nan nan nan nan nan nan nan nan nan nan nan nan nan nan nan nan 13 12 13 16 22 31 8 9 3 7 12 11 8 9 12 13 16 18 17 12 14 11 13 11
nan nan nan nan nan nan nan nan nan nan nan nan nan nan nan nan nan nan nan nan nan 21 19 20 20 19 25 22 3 2 1 6 8 4 3 4 7 13 15 15 14 14 13 9
nan nan nan nan nan nan nan nan nan nan nan nan nan nan nan nan nan nan nan nan nan nan nan 31 29 25 21 22 14 11 9 7 8 7 8 6 2 4 10 10 11 13 15 12
nan nan nan nan nan nan nan nan nan nan nan nan nan nan nan nan nan nan nan nan nan nan nan nan 32 39 38 31 13 15 16 13 15 13 12 6 7 4 7 8 8 8 15 15
nan nan nan nan nan nan nan nan nan nan nan nan nan nan nan nan nan nan nan nan nan nan nan nan nan 33 37 36 38 20 20 21 25 14 17 13 7 11 11 10 10 9 7 12
nan nan nan nan nan nan nan nan nan nan nan nan nan nan nan nan nan nan nan nan nan nan nan 29 31 nan 34 41 42 44 31 26 27 21 17 17 10 14 15 11 13 10 8 7
nan nan nan nan nan nan nan nan nan nan nan nan nan nan nan nan nan nan nan nan nan 19 22 28 34 36 38 36 37 38 42 36 30 27 22 20 16 17 19 17 17 16 12 7
nan nan nan nan nan nan nan nan nan nan nan nan nan nan nan nan nan nan nan nan 15 22 26 27 29 32 35 38 39 38 35 32 32 37 29 26 23 21 20 22 22 20 14 12
nan nan nan nan nan nan nan nan nan nan nan nan nan nan nan nan nan nan nan nan nan nan 26 27 27 27 34 30 38 38 39 36 33 33 38 33 34 24 23 21 25 24 21 15
nan nan nan nan nan nan nan nan nan nan nan nan nan nan nan nan nan nan nan nan nan nan 27 25 24 27 29 30 29 26 30 34 38 42 45 42 39 35 31 25 26 24 26 22
nan nan nan nan nan nan nan nan nan nan nan nan nan nan nan nan nan nan nan 20 20 nan 26 24 23 29 28 27 31 28 24 25 30 60 53 49 44 39 35 30 26 29 30 28
nan nan nan nan nan nan nan nan nan nan nan nan nan nan nan nan nan nan nan nan 22 22 24 24 21 25 29 30 34 33 25 24 22 46 55 63 52 49 45 36 29 31 37 33
nan nan nan nan nan nan nan nan nan nan nan nan nan nan nan nan nan nan nan nan 23 22 25 27 23 23 27 29 36 35 36 27 22 33 48 54 51 49 43 41 43 38 40 37
nan nan nan nan nan nan nan nan nan nan nan nan nan nan nan nan nan 30 27 24 22 21 24 29 26 25 25 28 33 33 35 34 31 31 41 49 55 47 44 41 40 37 44 41
nan nan nan nan nan nan nan nan nan nan nan nan nan nan nan nan 30 nan 26 24 22 19 23 27 24 26 27 22 21 28 31 30 33 29 38 52 56 53 45 43 44 46 47 49
nan nan nan nan nan nan nan nan nan nan nan nan nan nan nan nan nan 28 28 25 20 19 20 20 24 25 25 22 21 22 26 30 37 33 33 41 52 54 58 57 55 55 53 56
nan nan nan nan nan nan nan nan nan nan nan nan nan nan nan 27 28 26 22 nan 19 21 26 22 23 22 24 22 21 20 23 26 28 25 30 42 45 50 52 54 58 57 51 47
nan nan nan nan nan nan nan nan nan nan nan nan nan nan nan 29 27 21 18 17 21 25 24 24 25 24 26 22 23 17 23 23 23 25 23 27 35 nan 51 50 47 41 40 38
nan nan nan nan nan nan nan nan nan nan nan nan nan nan nan nan nan 26 27 24 24 23 20 21 18 22 21 22 24 20 25 22 21 nan 20 26 26 nan nan nan nan nan nan nan
nan nan nan nan nan nan nan nan nan nan nan nan 32 31 31 29 nan nan 27 21 24 23 21 18 19 17 nan nan nan nan nan nan nan nan nan nan nan nan nan nan nan nan nan nan
nan nan nan nan nan nan nan nan 39 nan nan nan 33 27 25 22 20 17 17 17 24 25 20 20 22 18 nan nan nan nan nan nan nan nan nan nan nan nan nan nan nan nan 35 44
nan nan 40 nan nan nan nan 38 31 32 32 32 27 24 21 13 16 19 19 20 24 25 25 24 nan nan nan nan 19 nan 18 nan nan nan nan nan nan nan nan nan nan nan 27 42
nan nan nan nan nan nan nan 21 21 28 22 18 18 21 18 16 19 24 21 19 21 23 27 nan nan nan nan 18 15 18 nan nan nan nan nan nan nan nan nan nan 23 nan 20 25
nan nan nan nan nan nan nan 16 17 21 21 19 21 23 22 25 27 26 24 23 20 23 26 24 nan nan nan nan nan nan nan nan nan nan nan nan nan nan nan nan nan nan nan nan
nan nan nan nan nan nan 18 24 23 25 28 27 28 26 20 20 21 25 22 22 17 19 22 25 25 nan nan nan nan nan nan nan nan nan nan nan nan nan nan nan nan nan nan nan
nan nan nan nan nan nan nan 19 25 25 22 27 26 23 22 19 21 22 20 19 16 18 25 26 25 nan nan nan 9 nan nan nan nan nan nan nan nan nan nan nan nan nan nan nan
Wind_Direction
nan nan nan nan nan nan nan nan nan nan nan nan nan nan nan nan nan nan nan nan 237 258 260 262 290 297 305 341 13 50 355 356 14 8 12 27 23 28 33 40 45 49 42 64
nan nan nan nan nan nan nan nan nan nan nan nan nan nan nan nan nan nan nan nan nan 241 251 267 269 288 280 314 136 282 321 316 324 341 314 28 16 7 19 30 36 39 50 57
nan nan nan nan nan nan nan nan nan nan nan nan nan nan nan nan nan nan nan nan nan nan nan 239 245 249 269 302 289 245 250 251 261 299 261 257 254 323 341 11 42 36 34 37
nan nan nan nan nan nan nan nan nan nan nan nan nan nan nan nan nan nan nan nan nan nan nan nan 237 242 246 245 269 251 267 255 253 265 270 287 268 267 307 322 354 19 30 24
nan nan nan nan nan nan nan nan nan nan nan nan nan nan nan nan nan nan nan nan nan nan nan nan nan 233 234 223 235 240 250 272 270 255 265 267 223 259 244 280 315 332 343 23
nan nan nan nan nan nan nan nan nan nan nan nan nan nan nan nan nan nan nan nan nan nan nan 241 241 nan 233 230 230 232 234 241 254 254 265 273 268 266 270 276 276 283 294 330
nan nan nan nan nan nan nan nan nan nan nan nan nan nan nan nan nan nan nan nan nan 238 238 232 239 241 237 233 236 234 233 233 237 241 239 257 254 264 284 273 267 262 278 290
nan nan nan nan nan nan nan nan nan nan nan nan nan nan nan nan nan nan nan nan 253 246 247 244 239 241 238 236 235 240 234 232 234 245 217 239 244 244 259 264 258 259 251 279
nan nan nan nan nan nan nan nan nan nan nan nan nan nan nan nan nan nan nan nan nan nan 254 251 250 242 232 243 233 229 235 234 234 232 241 233 237 243 258 259 249 252 253 250
nan nan nan nan nan nan nan nan nan nan nan nan nan nan nan nan nan nan nan nan nan nan 263 262 260 252 234 238 234 236 245 258 230 226 223 227 232 235 241 250 254 246 254 252
nan nan nan nan nan nan nan nan nan nan nan nan nan nan nan nan nan nan nan 277 277 nan 268 264 259 256 241 241 239 241 247 260 240 217 216 221 228 232 243 246 254 253 248 251
nan nan nan nan nan nan nan nan nan nan nan nan nan nan nan nan nan nan nan nan 278 267 269 274 266 256 248 242 241 242 243 255 245 215 218 215 217 225 241 244 246 255 257 257
nan nan nan nan nan nan nan nan nan nan nan nan nan nan nan nan nan nan nan nan 272 268 267 270 267 260 255 249 248 248 245 240 246 216 215 218 218 228 236 244 248 254 255 261
nan nan nan nan nan nan nan nan nan nan nan nan nan nan nan nan nan 281 280 277 272 266 253 256 260 264 262 252 249 249 246 238 241 230 213 215 217 216 229 235 242 248 252 256
nan nan nan nan nan nan nan nan nan nan nan nan nan nan nan nan 291 nan 282 279 278 262 255 257 258 252 272 258 244 241 238 235 226 239 226 213 212 211 220 233 238 244 250 251
nan nan nan nan nan nan nan nan nan nan nan nan nan nan nan nan nan 290 285 279 274 259 261 264 260 257 265 260 239 234 227 226 223 227 229 227 214 213 218 230 240 241 241 244
nan nan nan nan nan nan nan nan nan nan nan nan nan nan nan 284 284 284 286 nan 287 266 266 270 266 259 261 253 245 239 218 208 210 211 219 218 219 215 213 220 229 236 238 239
nan nan nan nan nan nan nan nan nan nan nan nan nan nan nan 293 286 284 291 285 279 273 270 272 264 253 267 260 245 240 222 213 216 211 208 216 219 nan 216 216 220 223 228 233
nan nan nan nan nan nan nan nan nan nan nan nan nan nan nan nan nan 278 287 274 274 274 282 284 269 260 280 272 239 248 228 210 223 nan 208 215 221 nan nan nan nan nan nan nan
nan nan nan nan nan nan nan nan nan nan nan nan 293 278 282 280 nan nan 274 267 261 274 289 277 273 268 nan nan nan nan nan nan nan nan nan nan nan nan nan nan nan nan nan nan
nan nan nan nan nan nan nan nan 302 nan nan nan 292 291 301 288 279 267 257 252 261 278 288 275 271 263 nan nan nan nan nan nan nan nan nan nan nan nan nan nan nan nan 231 234
nan nan 290 nan nan nan nan 299 303 285 288 297 298 296 298 286 273 260 264 253 258 277 292 287 nan nan nan nan 219 nan 225 nan nan nan nan nan nan nan nan nan nan nan 230 234
nan nan nan nan nan nan nan 309 300 288 294 293 292 287 288 297 282 255 259 254 266 285 296 nan nan nan nan 205 217 242 nan nan nan nan nan nan nan nan nan nan 238 nan 229 224
nan nan nan nan nan nan nan 295 294 298 302 284 283 283 280 274 278 265 257 257 278 293 295 292 nan nan nan nan nan nan nan nan nan nan nan nan nan nan nan nan nan nan nan nan
nan nan nan nan nan nan 277 281 287 290 293 286 287 286 284 278 270 265 257 263 278 292 295 288 283 nan nan nan nan nan nan nan nan nan nan nan nan nan nan nan nan nan nan nan
nan nan nan nan nan nan nan 267 278 282 276 279 274 273 287 282 270 259 262 270 272 289 294 294 293 nan nan nan 276 nan nan nan nan nan nan nan nan nan nan nan nan nan nan nan